Вернуться в каталог

STARLINK-32603

АктивенСвязьVLEO
NORAD 62072·PAYLOAD·🇺🇸 United States

Запущен Nov 24, 2024 с Vandenberg Space Force Base

Loading…

Ближайшие Пролёты (ближайшие 24 часа)

TLE

СвежийSource: CelesTrak SupGP

Эпоха: Sep 15, 2026, 02:41 UTC

1 62072C 24217R   26258.11229167  .00013439  00000+0  39711-3 0  2586
2 62072  53.1601  30.8426 0001242  86.4741  69.2082 15.34379433    17

Отслеживайте STARLINK-32603 в реальном времени с AllMySat

Download on the App Store